Pineville, WV

3:12 PM EST on December 05, 2019 (GMT -0500)
Pineville

Weather History for KI16 - October, 2019

Change the Weather History Date:

Thursday, October 10, 2019

  Actual Average (KBKW) Record (KBKW)
Temperature  
Mean Temperature 66 °F 55 °F  
Max Temperature 81 °F 65 °F 85 °F (1939)
Min Temperature 51 °F 45 °F 24 °F (1925)
Degree Days  
Heating Degree Days 0 10  
Month to date heating degree days 92  
Since 1 July heating degree days 226  
Cooling Degree Days 1 0  
Month to date cooling degree days 2  
Year to date cooling degree days 552  
Growing Degree Days 16 (Base 50)    
Moisture  
Dew Point 54 °F    
Average Humidity 78    
Maximum Humidity 99    
Minimum Humidity 32    
Precipitation  
Precipitation 0.00 in 0.08 in 2.00 in (1922)
Month to date precipitation 0.82  
Year to date precipitation 33.49  
Snow  
Snow 0.00 in 0.00 in 3.00 in (1906)
Month to date snowfall 0.0  
Since 1 September snowfall 0.0  
Snow Depth -    
Sea Level Pressure  
Sea Level Pressure 30.23 in    
Wind  
Wind Speed - (North)    
Max Wind Speed -    
Max Gust Speed -    
Visibility 10 miles    
Events      
T = Trace of Precipitation, MM = Missing Value Source: NWS Daily Summary

Daily Weather History Graph

Daily Weather History Graph

Search for Another Location

Airport or City:

Astronomy

Oct. 10, 2019 Rise Set
Actual Time 7:29 AM EDT 6:56 PM EDT
Civil Twilight 7:03 AM EDT 7:22 PM EDT
Nautical Twilight 6:33 AM EDT 7:52 PM EDT
Astronomical Twilight 6:02 AM EDT 8:23 PM EDT
Moon 5:52 PM EDT (10/10) 4:17 AM EDT (10/10)
Length of Visible Light 12h 19m
Length of Day
11h 26m
Waxing Gibbous, 91% of the Moon is Illuminated
Oct 10
Waxing Gibbous
Oct 13
Full
Oct 21
Last Quarter
Oct 27
New
Nov 4
First Quarter

Hourly Weather History & Observations

Time (EDT) Temp. Dew Point Humidity Pressure Visibility Wind Dir Wind Speed Gust Speed Precip Events Conditions
12:15 AM 56.8 °F 55.6 °F 96% 30.24 in 10.0 mi North - - N/A   Clear
12:35 AM 56.5 °F 55.4 °F 96% 30.24 in 10.0 mi North - - N/A   Clear
12:55 AM 56.3 °F 55.2 °F 96% 30.24 in 10.0 mi North - - N/A   Clear
1:15 AM 56.3 °F 55.4 °F 97% 30.24 in 10.0 mi North - - N/A   Clear
1:35 AM 56.3 °F 55.6 °F 97% 30.23 in 10.0 mi North - - N/A   Clear
1:55 AM 56.1 °F 55.2 °F 97% 30.23 in 10.0 mi North - - N/A   Clear
2:15 AM 55.2 °F 54.3 °F 97% 30.23 in 10.0 mi North - - N/A   Clear
2:35 AM 54.9 °F 54.0 °F 97% 30.24 in 10.0 mi North - - N/A   Clear
2:55 AM 54.9 °F 54.0 °F 97% 30.24 in 10.0 mi North - - N/A   Clear
3:15 AM 54.5 °F 53.6 °F 97% 30.24 in 10.0 mi North - - N/A   Clear
3:35 AM 54.1 °F 53.4 °F 97% 30.24 in 10.0 mi North - - N/A   Clear
3:55 AM 53.6 °F 52.7 °F 97% 30.23 in 10.0 mi North - - N/A   Clear
4:15 AM 53.6 °F 52.9 °F 97% 30.24 in 10.0 mi North - - N/A   Clear
4:35 AM 53.1 °F 52.5 °F 98% 30.24 in 10.0 mi North - - N/A   Clear
4:55 AM 53.1 °F 52.7 °F 99% 30.24 in 10.0 mi North - - N/A   Clear
5:15 AM 52.7 °F 52.2 °F 98% 30.25 in 10.0 mi North - - N/A   Clear
5:35 AM 52.5 °F 52.2 °F 99% 30.25 in 7.0 mi North - - N/A   Clear
5:55 AM 52.3 °F 52.0 °F 99% 30.25 in 7.0 mi North - - N/A   Clear
6:15 AM 52.3 °F 51.8 °F 98% 30.26 in 10.0 mi North - - N/A   Clear
6:35 AM 52.0 °F 51.4 °F 98% 30.26 in 10.0 mi North - - N/A   Clear
6:55 AM 52.0 °F 51.4 °F 98% 30.26 in 10.0 mi North - - N/A   Clear
7:15 AM 51.6 °F 51.1 °F 98% 30.27 in 10.0 mi North - - N/A   Clear
7:35 AM 51.8 °F 51.1 °F 97% 30.27 in 10.0 mi North - - N/A   Clear
7:55 AM 51.4 °F 50.9 °F 98% 30.28 in 10.0 mi North - - N/A   Clear
8:15 AM 51.8 °F 51.3 °F 98% 30.28 in 10.0 mi North - - N/A   Clear
8:35 AM 52.3 °F 51.8 °F 98% 30.28 in 10.0 mi North - - N/A   Clear
8:55 AM 53.6 °F 52.9 °F 97% 30.28 in 10.0 mi North - - N/A   Clear
9:15 AM 55.6 °F 54.9 °F 97% 30.28 in 10.0 mi North - - N/A   Clear
9:35 AM 58.8 °F 57.6 °F 96% 30.29 in 10.0 mi North - - N/A   Clear
9:55 AM 62.6 °F 56.5 °F 80% 30.29 in 10.0 mi North - - N/A   Clear
10:15 AM 64.6 °F 56.5 °F 75% 30.28 in 10.0 mi North - - N/A   Clear
10:35 AM 66.4 °F 55.8 °F 69% 30.28 in 10.0 mi North - - N/A   Clear
10:55 AM 68.4 °F 57.9 °F 69% 30.28 in 10.0 mi North - - N/A   Clear
11:15 AM 69.6 °F 56.7 °F 63% 30.28 in 10.0 mi North - - N/A   Clear
11:35 AM 72.5 °F 55.6 °F 55% 30.28 in 10.0 mi North - - N/A   Clear
11:55 AM 72.9 °F 55.8 °F 55% 30.27 in 10.0 mi North - - N/A   Clear
12:15 PM 74.1 °F 55.9 °F 53% 30.27 in 10.0 mi North - - N/A   Clear
12:35 PM 75.2 °F 55.8 °F 51% 30.26 in 10.0 mi North - - N/A   Clear
12:55 PM 76.3 °F 55.8 °F 49% 30.26 in 10.0 mi North - - N/A   Clear
1:35 PM 77.7 °F 54.5 °F 45% 30.24 in 10.0 mi North - - N/A   Clear
1:55 PM 76.6 °F 53.4 °F 44% 30.22 in 10.0 mi North - - N/A   Clear
2:15 PM 75.9 °F 53.6 °F 46% 30.21 in 10.0 mi North - - N/A   Clear
2:35 PM 78.4 °F 48.9 °F 35% 30.21 in 10.0 mi North - - N/A   Clear
2:55 PM 77.9 °F 49.6 °F 37% 30.20 in 10.0 mi North - - N/A   Scattered Clouds
3:15 PM 80.8 °F 49.3 °F 33% 30.19 in 10.0 mi North - - N/A   Scattered Clouds
3:35 PM 81.5 °F 48.7 °F 32% 30.19 in 10.0 mi North - - N/A   Scattered Clouds
3:55 PM 81.1 °F 50.5 °F 34% 30.19 in 10.0 mi North - - N/A   Mostly Cloudy
4:15 PM 80.8 °F 50.5 °F 35% 30.18 in 10.0 mi North - - N/A   Overcast
4:35 PM 78.8 °F 51.1 °F 38% 30.18 in 10.0 mi North - - N/A   Overcast
4:55 PM 74.8 °F 57.7 °F 55% 30.18 in 10.0 mi North - - N/A   Mostly Cloudy
5:15 PM 72.7 °F 58.8 °F 62% 30.18 in 10.0 mi North - - N/A   Scattered Clouds
5:35 PM 70.9 °F 57.4 °F 62% 30.18 in 10.0 mi North - - N/A   Scattered Clouds
5:55 PM 69.4 °F 56.8 °F 64% 30.18 in 10.0 mi North - - N/A   Clear
6:15 PM 68.5 °F 57.2 °F 67% 30.18 in 10.0 mi North - - N/A   Clear
6:35 PM 67.8 °F 57.6 °F 70% 30.18 in 10.0 mi North - - N/A   Scattered Clouds
6:55 PM 66.7 °F 57.0 °F 71% 30.18 in 10.0 mi North - - N/A   Scattered Clouds
7:15 PM 65.5 °F 57.2 °F 75% 30.18 in 10.0 mi North - - N/A   Clear
7:35 PM 64.4 °F 57.2 °F 77% 30.18 in 10.0 mi North - - N/A   Clear
7:55 PM 63.3 °F 57.2 °F 80% 30.18 in 10.0 mi North - - N/A   Clear
8:15 PM 61.9 °F 57.0 °F 84% 30.18 in 10.0 mi North - - N/A   Clear
8:35 PM 61.5 °F 56.7 °F 84% 30.18 in 10.0 mi North - - N/A   Clear
8:55 PM 60.1 °F 55.9 °F 86% 30.19 in 10.0 mi North - - N/A   Scattered Clouds
9:15 PM 59.2 °F 55.9 °F 89% 30.19 in 10.0 mi North - - N/A   Scattered Clouds
9:35 PM 59.4 °F 56.1 °F 89% 30.20 in 10.0 mi North - - N/A   Mostly Cloudy
9:55 PM 59.7 °F 56.3 °F 88% 30.20 in 10.0 mi North - - N/A   Overcast
10:15 PM 60.1 °F 56.3 °F 87% 30.21 in 10.0 mi North - - N/A   Overcast
10:35 PM 59.4 °F 56.3 °F 90% 30.21 in 10.0 mi North - - N/A   Scattered Clouds
10:55 PM 59.0 °F 56.3 °F 91% 30.22 in 10.0 mi North - - N/A   Scattered Clouds
11:15 PM 59.0 °F 55.8 °F 89% 30.22 in 10.0 mi North - - N/A   Overcast
11:35 PM 59.0 °F 56.1 °F 90% 30.22 in 10.0 mi North - - N/A   Mostly Cloudy
11:55 PM 59.2 °F 56.3 °F 90% 30.22 in 10.0 mi North - - N/A   Mostly Cloudy